This is the latest recevied weather packets stored in our database for station/object UB2FAY-13. If no packets are shown the sender has not sent any weather packets the latest 10 day(s).
| Time | Temp. | Humidity | Pressure | Rain* | Wind** | Luminosity | Snow |
|---|---|---|---|---|---|---|---|
| 1777610822 | 13.89° C | 57% | 1027.1 hPa | 0 mm | - | - | - |
| 1777610218 | 14.44° C | 61% | 1026.8 hPa | 0 mm | - | - | - |
| 1777609618 | 13.89° C | 61% | 1026.6 hPa | 0 mm | - | - | - |
| 1777609066 | 13.89° C | 62% | 1026.6 hPa | 0 mm | - | - | - |
| 1777609022 | 13.89° C | 62% | 1026.6 hPa | 0 mm | - | - | - |
| 1777608418 | 13.89° C | 62% | 1026.7 hPa | 0 mm | - | - | - |
| 1777607818 | 13.33° C | 65% | 1026.6 hPa | 0 mm | - | - | - |
| 1777607218 | 12.22° C | 67% | 1026.6 hPa | 0 mm | - | - | - |
| 1777606651 | 11.67° C | 69% | 1026.6 hPa | 0 mm | - | - | - |
| 1777606618 | 11.67° C | 69% | 1026.6 hPa | 0 mm | - | - | - |
| 1777606022 | 10.56° C | 69% | 1026.6 hPa | 0 mm | - | - | - |
| 1777605418 | 10.56° C | 69% | 1026.6 hPa | 0 mm | - | - | - |
| 1777604890 | 10.56° C | 69% | 1026.6 hPa | 0 mm | - | - | - |
| 1777604818 | 10.56° C | 69% | 1026.6 hPa | 0 mm | - | - | - |
| 1777604218 | 10.56° C | 68% | 1026.4 hPa | 0 mm | - | - | - |
| 1777603618 | 10.56° C | 69% | 1026.5 hPa | 0 mm | - | - | - |
| 1777603021 | 10.56° C | 68% | 1026.8 hPa | 0 mm | - | - | - |
| 1777602418 | 11.11° C | 69% | 1026.7 hPa | 0 mm | - | - | - |
| 1777601818 | 11.11° C | 68% | 1026.6 hPa | 0 mm | - | - | - |
| 1777601218 | 11.11° C | 68% | 1026.7 hPa | 0 mm | - | - | - |
| 1777600618 | 11.11° C | 68% | 1026.7 hPa | 0 mm | - | - | - |
| 1777600018 | 11.11° C | 69% | 1026.9 hPa | 0 mm | - | - | - |
| 1777599419 | 11.11° C | 69% | 1026.8 hPa | 0 mm | - | - | - |
| 1777598818 | 11.11° C | 70% | 1026.9 hPa | 0 mm | - | - | - |
| 1777598218 | 11.11° C | 70% | 1026.8 hPa | 0 mm | - | - | - |
* Rain latest hour (hover to see other rain measurements)
** Current wind speed in m/s (hover to see current wind gust speed)